GW2591 Weather Reports


Display with metric or nautical units.
time (UTC)temp
F
wind
direction
speed
MPH
gust
MPH
rain 1hr
in
rain 24hr
in
rain mn
in
humidity
%
barometer
mb
20260506002010 48 21 2.0 3.0 0.02 0.57 0.57 89 1007.8
20260506001507 48 15 1.0 3.0 0.02 0.57 0.57 89 1008.0
20260506001004 48 48 0.0 2.0 0.05 0.56 0.56 89 1007.9
20260506000501 48 32 0.0 2.0 0.05 0.56 0.56 88 1007.9
20260505235958 48 52 0.0 2.0 0.05 0.56 0.56 88 1007.9
20260505235456 48 14 0.0 3.0 0.07 0.55 0.55 88 1007.8
20260505234953 48 350 3.0 4.0 0.05 0.54 0.54 88 1008.1
20260505234450 48 317 3.0 5.0 0.05 0.54 0.54 88 1008.1
20260505233947 48 327 0.0 4.0 0.05 0.54 0.54 88 1008.1
20260505233444 48 320 4.0 5.0 0.05 0.53 0.53 88 1008.1
20260505232942 48 310 2.0 5.0 0.05 0.53 0.53 88 1008.3
20260505232440 48 295 2.0 6.0 0.05 0.52 0.52 88 1008.1
20260505231937 48 331 3.0 7.0 0.05 0.52 0.52 88 1007.9
20260505231434 48 318 4.0 9.0 0.05 0.52 0.52 89 1008.0
20260505230932 49 314 9.0 9.0 0.05 0.51 0.51 89 1007.8
20260505230429 49 322 8.0 11.0 0.05 0.51 0.51 89 1007.7
20260505225925 49 331 4.0 7.0 0.05 0.50 0.50 89 1007.5
20260505225423 49 15 3.0 9.0 0.07 0.50 0.50 89 1007.5
20260505224918 49 347 3.0 10.0 0.09 0.50 0.50 89 1007.6
20260505224415 48 7 3.0 9.0 0.07 0.49 0.49 89 1007.6
20260505223912 49 332 7.0 9.0 0.05 0.48 0.48 89 1007.7
20260505223409 49 8 2.0 9.0 0.05 0.47 0.47 89 1007.8
20260505222906 49 359 2.0 5.0 0.07 0.47 0.47 88 1007.6
20260505222402 49 40 0.0 6.0 0.07 0.47 0.47 88 1007.5
20260505221858 49 5 1.0 4.0 0.05 0.46 0.46 88 1007.4
20260505221355 49 357 2.0 5.0 0.02 0.45 0.45 88 1007.6
20260505220853 49 26 1.0 4.0 0.02 0.45 0.45 88 1007.6
20260505220350 49 29 4.0 6.0 0.00 0.45 0.45 88 1007.3
20260505215847 49 4 3.0 4.0 0.02 0.45 0.45 88 1007.5
20260505215345 49 357 4.0 7.0 0.05 0.45 0.45 88 1007.5
20260505214843 49 3 3.0 7.0 0.02 0.44 0.44 88 1007.5
20260505214340 49 2 2.0 8.0 0.02 0.44 0.44 88 1007.6
20260505213837 50 328 8.0 10.0 0.07 0.43 0.43 88 1007.6
20260505213335 50 310 1.0 3.0 0.12 0.43 0.43 89 1007.6
20260505212831 50 280 3.0 5.0 0.12 0.42 0.42 88 1007.6
20260505212328 50 334 3.0 8.0 0.09 0.41 0.41 88 1007.6
20260505211824 50 313 4.0 7.0 0.12 0.40 0.40 88 1007.6
20260505211322 50 337 5.0 11.0 0.14 0.39 0.39 88 1007.4
20260505210818 50 307 5.0 7.0 0.21 0.38 0.38 89 1007.3
20260505210315 50 294 3.0 9.0 0.19 0.36 0.36 88 1007.3
20260505205812 50 321 5.0 8.0 0.17 0.35 0.35 88 1007.4
20260505205310 50 311 2.0 6.0 0.17 0.33 0.33 88 1007.2
20260505204807 50 311 3.0 8.0 0.19 0.32 0.32 87 1007.3
20260505204305 50 310 5.0 8.0 0.19 0.30 0.30 87 1007.1
20260505203802 50 13 3.0 8.0 0.17 0.28 0.28 87 1007.4
20260505203259 50 315 4.0 7.0 0.12 0.27 0.27 87 1007.3
20260505202754 50 313 5.0 11.0 0.07 0.26 0.26 86 1007.2
20260505202251 50 303 3.0 12.0 0.02 0.24 0.24 86 1007.1
20260505201747 50 309 5.0 10.0 0.07 0.24 0.24 86 1007.1
20260505201245 50 324 7.0 11.0 0.07 0.24 0.24 87 1007.2
20260505200743 51 333 11.0 15.0 0.05 0.23 0.23 86 1007.1
20260505200240 51 311 9.0 10.0 0.05 0.22 0.22 86 1006.9
20260505195735 51 309 2.0 15.0 0.05 0.22 0.22 86 1007.3
20260505195233 51 313 3.0 8.0 0.05 0.22 0.22 87 1007.4
20260505194730 51 313 5.0 11.0 0.02 0.21 0.21 86 1007.6
20260505194226 51 287 6.0 12.0 0.05 0.20 0.20 87 1007.7
20260505193722 51 306 3.0 10.0 0.09 0.20 0.20 87 1007.7
20260505193220 52 298 5.0 11.0 0.09 0.20 0.20 87 1007.8
20260505192718 52 306 4.0 8.0 0.07 0.18 0.18 87 1007.9
20260505192215 52 278 4.0 9.0 0.09 0.18 0.18 87 1008.1
20260505191714 52 287 3.0 8.0 0.09 0.17 0.17 87 1008.0
20260505191212 52 269 5.0 11.0 0.09 0.16 0.16 86 1008.1
20260505190708 52 285 4.0 10.0 0.09 0.15 0.15 86 1007.9
20260505190207 52 272 4.0 9.0 0.07 0.14 0.14 86 1007.8
20260505185704 52 281 3.0 7.0 0.12 0.14 0.14 85 1007.7
20260505185201 52 276 6.0 8.0 0.12 0.13 0.13 85 1007.6
20260505184657 52 266 8.0 8.0 0.07 0.12 0.12 83 1007.9
20260505184154 53 281 5.0 9.0 0.02 0.11 0.11 84 1007.7
20260505183651 53 286 6.0 10.0 0.02 0.11 0.11 83 1007.4
20260505183149 53 275 6.0 9.0 0.00 0.10 0.10 82 1007.4
20260505182645 53 267 5.0 9.0 0.02 0.10 0.10 81 1007.3
20260505182142 53 257 5.0 10.0 0.05 0.10 0.10 80 1007.5
20260505181638 53 278 3.0 10.0 0.02 0.10 0.10 81 1007.4
20260505181136 53 242 7.0 10.0 0.02 0.09 0.09 78 1007.2
20260505180632 53 256 5.0 10.0 0.02 0.09 0.09 80 1007.4
20260505180130 53 240 4.0 9.0 0.05 0.09 0.09 79 1007.5
20260505175625 53 226 4.0 7.0 0.09 0.09 0.09 81 1007.4
20260505175121 53 220 2.0 7.0 0.07 0.08 0.08 80 1007.2
20260505174613 54 253 9.0 9.0 0.05 0.07 0.07 80 1007.2
20260505174109 54 274 8.0 12.0 0.09 0.07 0.07 81 1007.6
20260505173606 55 265 6.0 12.0 0.07 0.06 0.06 83 1007.5
20260505173102 55 277 5.0 11.0 0.07 0.05 0.05 82 1007.5
20260505172600 55 248 8.0 10.0 0.07 0.04 0.04 82 1007.6
20260505172057 55 278 9.0 11.0 0.09 0.04 0.04 82 1007.5
20260505171556 56 283 9.0 11.0 0.12 0.03 0.03 81 1007.3
20260505171054 56 254 8.0 10.0 0.09 0.02 0.02 81 1007.4
20260505170551 57 302 6.0 13.0 0.02 0.00 0.00 79 1007.5
20260505170048 57 272 7.0 15.0 0.02 0.00 0.00 79 1007.7
20260505165543 58 266 6.0 17.0 0.00 0.00 0.00 78 1007.4
20260505165039 59 249 7.0 15.0 0.00 0.00 0.00 77 1007.5
20260505164535 59 262 17.0 18.0 0.00 0.00 0.00 75 1007.5
20260505164033 59 252 17.0 18.0 0.00 0.00 0.00 72 1007.5
20260505163531 59 267 17.0 22.0 0.00 0.00 0.00 72 1007.5
20260505163027 59 257 10.0 22.0 0.00 0.00 0.00 73 1007.5
20260505162521 59 242 7.0 17.0 0.00 0.00 0.00 72 1007.5
20260505162018 60 256 11.0 20.0 0.00 0.00 0.00 70 1007.7
20260505161514 59 256 17.0 25.0 0.00 0.00 0.00 69 1007.5
20260505161012 59 242 14.0 26.0 0.00 0.00 0.00 69 1007.4
20260505160510 60 257 20.0 24.0 0.00 0.00 0.00 69 1007.3
20260505152946 60 253 17.0 25.0 0.00 0.00 0.00 71 1007.3
20260505152443 60 276 12.0 17.0 0.00 0.00 0.00 71 1007.3
20260505151938 60 254 11.0 22.0 0.00 0.00 0.00 70 1007.1
20260505151433 60 249 22.0 32.0 0.00 0.00 0.00 69 1007.4
20260505150931 60 265 17.0 25.0 0.00 0.00 0.00 70 1007.1
20260505150427 61 252 23.0 30.0 0.00 0.00 0.00 70 1006.9
20260505140352 62 258 17.0 24.0 0.00 0.00 0.00 66 1005.1
20260505124806 60 245 5.0 18.0 0.00 0.00 0.00 69 1005.0
20260505124303 60 243 9.0 20.0 0.00 0.00 0.00 68 1005.1
20260505123758 60 223 15.0 18.0 0.00 0.00 0.00 68 1005.1
20260505123255 60 222 8.0 21.0 0.00 0.00 0.00 69 1005.5
20260505122751 59 255 28.0 28.0 0.00 0.00 0.00 69 1005.1
20260505122249 58 238 10.0 15.0 0.00 0.00 0.00 72 1005.2
20260505121745 58 239 9.0 17.0 0.00 0.00 0.00 72 1005.1
20260505121242 59 254 14.0 20.0 0.00 0.00 0.00 71 1004.9
20260505120738 59 232 9.0 19.0 0.00 0.00 0.00 71 1005.4
20260505120235 59 225 6.0 21.0 0.00 0.00 0.00 70 1005.0
20260505115733 59 245 11.0 18.0 0.00 0.00 0.00 70 1005.4
20260505115231 59 248 9.0 17.0 0.00 0.00 0.00 69 1004.9
20260505114728 59 221 10.0 18.0 0.00 0.00 0.00 69 1004.8
20260505114224 59 239 9.0 16.0 0.00 0.00 0.00 69 1004.6
20260505113721 59 215 6.0 12.0 0.00 0.00 0.00 68 1004.6
20260505113217 59 224 4.0 12.0 0.00 0.00 0.00 68 1004.4
20260505112713 59 224 8.0 9.0 0.00 0.00 0.00 68 1004.3
20260505112211 59 229 3.0 15.0 0.00 0.00 0.00 67 1004.1
20260505111706 59 230 4.0 16.0 0.00 0.00 0.00 67 1003.7
20260505111202 60 222 4.0 12.0 0.00 0.00 0.00 67 1003.7
20260505110658 60 215 7.0 11.0 0.00 0.00 0.00 66 1003.7
20260505110156 60 230 5.0 12.0 0.00 0.00 0.00 66 1003.4
20260505102131 59 224 4.0 9.0 0.00 0.00 0.00 70 1002.9
20260505101630 59 224 4.0 10.0 0.00 0.00 0.00 70 1003.0
20260505101125 59 229 4.0 10.0 0.00 0.00 0.00 69 1002.9
20260505100622 60 219 4.0 12.0 0.00 0.00 0.00 68 1002.6
20260505100119 60 212 7.0 15.0 0.00 0.00 0.00 69 1002.9
20260505095615 59 210 8.0 14.0 0.00 0.00 0.00 70 1002.8
20260505095112 59 212 8.0 20.0 0.00 0.00 0.00 71 1003.0
20260505094608 59 225 9.0 14.0 0.00 0.00 0.00 72 1003.1
20260505094104 59 204 4.0 15.0 0.00 0.00 0.00 72 1003.1
20260505093601 59 211 4.0 8.0 0.00 0.00 0.00 72 1003.1
20260505093058 59 191 2.0 11.0 0.00 0.00 0.00 71 1003.3
20260505092555 59 223 4.0 8.0 0.00 0.00 0.00 71 1003.2
20260505092054 59 200 9.0 14.0 0.00 0.00 0.00 71 1003.3
20260505091550 59 216 11.0 15.0 0.00 0.00 0.00 71 1003.0
20260505091049 59 216 10.0 19.0 0.00 0.00 0.00 71 1003.3
20260505090546 59 233 7.0 21.0 0.00 0.00 0.00 71 1003.3
20260505090044 59 230 7.0 18.0 0.00 0.00 0.00 70 1003.0
20260505085541 59 229 4.0 16.0 0.00 0.00 0.00 71 1002.8
20260505085040 59 227 6.0 17.0 0.00 0.00 0.00 71 1003.0
20260505084537 60 229 7.0 13.0 0.00 0.00 0.00 69 1002.8
20260505084035 60 243 4.0 11.0 0.00 0.00 0.00 70 1002.7
20260505083532 59 224 7.0 16.0 0.00 0.00 0.00 71 1002.7
20260505083029 59 223 7.0 13.0 0.00 0.00 0.00 72 1002.6
20260505082524 59 240 8.0 20.0 0.00 0.00 0.00 72 1002.6
20260505082021 60 236 9.0 20.0 0.00 0.00 0.00 71 1002.9
20260505081518 60 227 9.0 32.0 0.00 0.00 0.00 70 1002.8
20260505081015 62 235 8.0 30.0 0.00 0.00 0.00 64 1003.0
20260505080511 62 230 17.0 25.0 0.00 0.00 0.00 62 1002.8
20260505080008 63 233 10.0 24.0 0.00 0.00 0.00 62 1002.7
20260505075504 63 228 9.0 28.0 0.00 0.00 0.00 61 1002.8
20260505075001 63 234 9.0 30.0 0.00 0.00 0.00 60 1002.6
20260505074458 64 228 9.0 23.0 0.00 0.00 0.00 59 1002.8
20260505073955 64 228 6.0 17.0 0.00 0.00 0.00 59 1002.7
20260505073453 64 231 6.0 15.0 0.00 0.00 0.00 59 1002.4
20260505072950 64 214 12.0 29.0 0.00 0.00 0.00 59 1002.4
20260505072446 64 217 5.0 11.0 0.00 0.00 0.00 61 1002.4
20260505071942 63 216 8.0 13.0 0.00 0.00 0.00 61 1002.4
20260505071438 63 232 2.0 14.0 0.00 0.00 0.00 63 1002.1
20260505070937 63 206 6.0 16.0 0.00 0.00 0.00 61 1002.3
20260505070433 63 212 9.0 13.0 0.00 0.00 0.00 63 1002.5
20260505065929 62 206 3.0 8.0 0.00 0.00 0.00 64 1002.8
20260505065425 63 244 5.0 11.0 0.00 0.00 0.00 63 1003.0
20260505064922 63 252 9.0 15.0 0.00 0.00 0.00 62 1002.8
20260505064419 63 247 10.0 14.0 0.00 0.00 0.00 62 1002.7
20260505063918 64 263 9.0 13.0 0.00 0.00 0.00 62 1002.8
20260505063414 64 268 5.0 12.0 0.00 0.00 0.00 61 1002.5
20260505062910 64 258 7.0 11.0 0.00 0.00 0.00 61 1002.7
20260505062408 64 257 6.0 10.0 0.00 0.00 0.00 60 1002.8
20260505061904 65 261 7.0 9.0 0.00 0.00 0.00 59 1002.7
20260505061403 66 266 4.0 13.0 0.00 0.00 0.00 56 1002.6
20260505060900 66 271 7.0 16.0 0.00 0.00 0.00 55 1002.5
20260505060356 67 257 9.0 20.0 0.00 0.00 0.00 54 1002.8
20260505055852 67 274 8.0 16.0 0.00 0.00 0.00 54 1002.8
20260505055348 68 271 11.0 30.0 0.00 0.00 0.00 52 1002.7
20260505054846 68 235 6.0 23.0 0.00 0.00 0.00 50 1002.1
20260505054343 68 218 14.0 17.0 0.00 0.00 0.00 51 1002.0
20260505053841 68 219 8.0 20.0 0.00 0.00 0.00 51 1002.0
20260505053338 68 213 13.0 24.0 0.00 0.00 0.00 51 1002.0
20260505052834 67 211 8.0 20.0 0.00 0.00 0.00 52 1002.0
20260505052331 68 226 7.0 24.0 0.00 0.00 0.00 52 1002.1
20260505051829 67 204 12.0 23.0 0.00 0.00 0.00 53 1001.8
20260505051326 67 211 25.0 25.0 0.00 0.00 0.00 53 1001.8
20260505050824 67 198 10.0 25.0 0.00 0.00 0.00 53 1001.8
20260505050323 67 218 11.0 25.0 0.00 0.00 0.00 53 1001.9
20260505041752 67 194 4.0 24.0 0.00 0.00 0.00 53 1002.2
20260505041249 67 213 12.0 23.0 0.00 0.00 0.00 54 1002.1
20260505040747 66 215 17.0 17.0 0.00 0.00 0.00 55 1002.3
20260505040244 66 200 6.0 17.0 0.00 0.00 0.00 55 1002.3
20260505035741 66 206 7.0 19.0 0.00 0.00 0.00 55 1002.3
20260505035236 67 189 5.0 15.0 0.00 0.00 0.00 55 1002.4
20260505034734 66 180 5.0 14.0 0.00 0.00 0.00 55 1002.5
20260505034230 66 206 4.0 13.0 0.00 0.00 0.00 56 1002.5
20260505033727 66 193 8.0 13.0 0.00 0.00 0.00 55 1002.5
20260505033225 66 193 3.0 14.0 0.00 0.00 0.00 56 1002.5
20260505032723 66 180 5.0 12.0 0.00 0.00 0.00 56 1002.5
20260505032218 66 203 10.0 14.0 0.00 0.00 0.00 56 1002.6
20260505031716 66 223 5.0 15.0 0.00 0.00 0.00 56 1002.6
20260505031212 66 200 5.0 12.0 0.00 0.00 0.00 56 1002.8
20260505030709 66 213 4.0 17.0 0.00 0.00 0.00 55 1002.7
20260505030205 67 202 11.0 20.0 0.00 0.00 0.00 54 1002.7
20260505025701 67 181 3.0 15.0 0.00 0.00 0.00 54 1002.8
20260505025200 67 202 4.0 15.0 0.00 0.00 0.00 55 1002.8
20260505024657 67 215 12.0 12.0 0.00 0.00 0.00 55 1002.8
20260505024154 66 179 4.0 12.0 0.00 0.00 0.00 54 1002.6
20260505023651 67 188 5.0 15.0 0.00 0.00 0.00 54 1002.5
20260505023149 66 200 6.0 12.0 0.00 0.00 0.00 55 1002.7
20260505022646 66 187 4.0 11.0 0.00 0.00 0.00 55 1002.6
20260505022143 66 182 4.0 11.0 0.00 0.00 0.00 55 1002.6
20260505021639 66 205 5.0 9.0 0.00 0.00 0.00 54 1002.7
20260505021136 67 186 5.0 12.0 0.00 0.00 0.00 54 1002.6
20260505020632 67 175 3.0 10.0 0.00 0.00 0.00 53 1002.6
20260505020128 67 182 6.0 13.0 0.00 0.00 0.00 52 1002.6
20260505015626 68 207 4.0 17.0 0.00 0.00 0.00 52 1002.5
20260505015122 68 171 4.0 14.0 0.00 0.00 0.00 52 1002.5
20260505014619 68 170 3.0 11.0 0.00 0.00 0.00 52 1002.4
20260505014116 68 197 6.0 16.0 0.00 0.00 0.00 51 1002.6
20260505013613 68 220 19.0 19.0 0.00 0.00 0.00 51 1002.6
20260505013110 68 205 7.0 16.0 0.00 0.00 0.00 50 1002.6
20260505012609 68 213 10.0 15.0 0.00 0.00 0.00 49 1002.3
20260505012105 68 202 5.0 15.0 0.00 0.00 0.00 49 1002.4
20260505011600 69 211 12.0 16.0 0.00 0.00 0.00 48 1002.5
20260505011058 69 202 8.0 19.0 0.00 0.00 0.00 47 1002.3
20260505010553 69 209 12.0 20.0 0.00 0.00 0.00 46 1002.2
20260505010050 69 211 7.0 18.0 0.00 0.00 0.00 45 1002.2
20260505005546 70 210 9.0 14.0 0.00 0.00 0.00 44 1002.1
20260505005044 70 215 13.0 20.0 0.00 0.00 0.00 43 1002.2
20260505004541 71 218 9.0 22.0 0.00 0.00 0.00 42 1002.0
20260505004038 71 209 14.0 23.0 0.00 0.00 0.00 41 1001.9
20260505003535 71 208 18.0 27.0 0.00 0.00 0.00 41 1002.0
20260505003032 71 216 12.0 17.0 0.00 0.00 0.00 40 1002.1
20260505002532 72 233 8.0 25.0 0.00 0.00 0.00 38 1002.2